The Dalles, WA

11:38 AM PST on November 12, 2019 (GMT -0800)
Columbia Gorge Regional-The Dalles

Weather History for KDLS - September, 2019

Change the Weather History Date:

Monday, September 9, 2019

  Actual Average Record
Temperature  
Mean Temperature 65 °F -  
Max Temperature 73 °F 82 °F 101 °F (1963)
Min Temperature 57 °F 54 °F 40 °F (1970)
Growing Degree Days 15 (Base 50)    
Moisture  
Dew Point 54 °F    
Average Humidity 69    
Maximum Humidity 90    
Minimum Humidity 45    
Precipitation  
Precipitation 0.02 in - - ()
Sea Level Pressure  
Sea Level Pressure 29.87 in    
Wind  
Wind Speed 6 mph (West)    
Max Wind Speed 15 mph    
Max Gust Speed -    
Visibility 10 miles    
Events Rain    
Averages and records for this station are not official NWS values.
T = Trace of Precipitation, MM = Missing Value Source: NWS Daily Summary

Daily Weather History Graph

Daily Weather History Graph

Search for Another Location

Airport or City:

Astronomy

Sep. 09, 2019 Rise Set
Actual Time 6:35 AM PDT 7:27 PM PDT
Civil Twilight 6:05 AM PDT 7:57 PM PDT
Nautical Twilight 5:29 AM PDT 8:33 PM PDT
Astronomical Twilight 4:51 AM PDT 9:11 PM PDT
Moon 5:40 PM PDT (9/9) 1:56 AM PDT (9/9)
Length of Visible Light 13h 52m
Length of Day
12h 52m
Waxing Gibbous, 83% of the Moon is Illuminated
Sep 9
Waxing Gibbous
Sep 13
Full
Sep 21
Last Quarter
Sep 28
New
Oct 5
First Quarter

Hourly Weather History & Observations

Time (PDT) Temp. Dew Point Humidity Pressure Visibility Wind Dir Wind Speed Gust Speed Precip Events Conditions
12:53 AM 62.1 °F 55.9 °F 80% 29.86 in 10.0 mi WNW 5.8 mph - N/A   Partly Cloudy
1:53 AM 62.1 °F 55.0 °F 78% 29.87 in 10.0 mi West 10.4 mph - N/A   Mostly Cloudy
2:53 AM 59.0 °F 55.0 °F 87% 29.88 in 10.0 mi SSW 5.8 mph - N/A   Partly Cloudy
3:53 AM 59.0 °F 55.0 °F 87% 29.88 in 10.0 mi South 5.8 mph - N/A   Overcast
4:53 AM 59.0 °F 55.9 °F 90% 29.88 in 10.0 mi SSE 3.5 mph - 0.01 in Rain Light Rain
5:53 AM 57.9 °F 55.0 °F 90% 29.88 in 10.0 mi Calm Calm - 0.01 in   Clear
6:53 AM 57.0 °F 54.0 °F 89% 29.89 in 10.0 mi Calm Calm - N/A   Clear
7:53 AM 59.0 °F 55.0 °F 87% 29.89 in 10.0 mi East 3.5 mph - N/A   Clear
8:53 AM 62.1 °F 55.9 °F 80% 29.90 in 10.0 mi Calm Calm - N/A   Clear
9:23 AM 63.0 °F 55.0 °F 75% 29.90 in 10.0 mi Calm Calm - N/A   Mostly Cloudy
9:36 AM 64.0 °F 55.0 °F 73% 29.90 in 10.0 mi NE 3.5 mph - N/A   Scattered Clouds
9:53 AM 64.9 °F 55.0 °F 70% 29.90 in 10.0 mi South 3.5 mph - N/A   Clear
10:53 AM 68.0 °F 54.0 °F 61% 29.89 in 10.0 mi ENE 3.5 mph - N/A   Scattered Clouds
11:53 AM 69.1 °F 54.0 °F 58% 29.88 in 10.0 mi West 4.6 mph - N/A   Partly Cloudy
12:53 PM 73.0 °F 51.1 °F 46% 29.87 in 10.0 mi Variable 5.8 mph - N/A   Clear
1:53 PM 73.0 °F 51.1 °F 46% 29.86 in 10.0 mi NW 10.4 mph - N/A   Scattered Clouds
2:53 PM 68.0 °F 55.9 °F 65% 29.85 in 10.0 mi WNW 11.5 mph - 0.00 in Rain Light Rain
3:53 PM 73.9 °F 53.1 °F 48% 29.83 in 10.0 mi NW 10.4 mph - 0.00 in   Clear
4:53 PM 73.9 °F 51.1 °F 45% 29.82 in 10.0 mi NW 11.5 mph - N/A   Scattered Clouds
5:53 PM 72.0 °F 52.0 °F 49% 29.82 in 10.0 mi WNW 15.0 mph - N/A   Mostly Cloudy
6:53 PM 68.0 °F 52.0 °F 56% 29.83 in 10.0 mi West 12.7 mph - N/A   Clear
7:53 PM 66.0 °F 52.0 °F 60% 29.85 in 10.0 mi WSW 9.2 mph - N/A   Clear
8:53 PM 64.0 °F 53.1 °F 67% 29.86 in 10.0 mi NW 11.5 mph - N/A   Clear
9:53 PM 64.0 °F 53.1 °F 67% 29.86 in 10.0 mi WNW 8.1 mph - N/A   Clear
10:53 PM 63.0 °F 53.1 °F 70% 29.87 in 10.0 mi Variable 4.6 mph - N/A   Mostly Cloudy
11:53 PM 63.0 °F 52.0 °F 67% 29.87 in 10.0 mi West 8.1 mph - N/A   Scattered Clouds